STARLINK-33632, 63577

Orbit data source: Space-Track

STARLINK-33632, 63577 is a payload satellite owned by SpaceX/Seattle (US) in LEO that was launched on Mon, 14 Apr 2025 UTC via an FALCON 9 launch vehicle from the Air Force Eastern Test Range (AFETR). Payload-class satellites include a variety of spacecraft equipped with specific instruments for various scientific and technological missions. These include communications satellites like Starlink; space stations such as the ISS; scientific satellites like the Hubble; Earth observation satellites from companies like Planet Labs, Umbra, and HawkEye 360; GPS; miniature CubeSats for education and research; and military/defense satellites.

Loading next visibility...
Identifier
63577, 2025-076J
Orbit
LEO
Country
Flag of USUS
Related business
Manufacturer
SpaceX/Seattle
Mission
Operational Commercial Communications
Bus & Motor
STARLINK V2MO, Unknown motor
Mass
575 kg wet, ~530 kg dry
Launch date (UTC)
2025-04-14 (5 months ago)
Launch vehicle
FALCON 9
Launch site
Air Force Eastern Test Range (AFETR)
Object type
Payload
Rocket body
Debris
Shape & HBR
Box + 1 Pan, 14.5 m
Radar Cross Section
41.120 m², Large (>1 m²)

Expand to show TLE details & history
Last TLE update: 2 days ago

TLE from 2 days ago
0 STARLINK-33632
1 63577U 25076J   25259.60830038  .00027159  00000-0  99438-3 0  9999
2 63577  42.9977 225.0948 0002193 279.9738  80.0866 15.27527522 25203
Epoch: 2025-09-16T14:35Z
TLE epoch observation values (Epoch: 2025-09-16T14:35:57.152Z)
Latitude
-0.00004°
Longitude
10.31047°
Altitude
482.723 km
Speed
7.626 km/s
True Right ascension
15h 00m 22s
True Declination
0° 00' 00"
Sunlit
Object was in daylight at epoch
Visualization orbit readout
Latitude
Unknown
Longitude
Unknown
Altitude
Unknown
Speed
Unknown
Apparent Right ascension
Unknown
Apparent Declination
Unknown
Sunlit
N/A
Visualization observer readout
Local Sidereal Time
08:22:26
Azimuth
Unknown
Elevation
Unknown
Doppler factor
Unknown
Orbital elements
Apogee altitude
486.657 km
Perigee altitude
483.647 km
Semi-major axis
6,863.289 km
Eccentricity
0.00022
Inclination
42.9977°
RAAN
225.0948°
Arg. of periapsis
279.9738°
True anomaly
80.11136°
Mean anomaly
80.0866°
Eccentric anomaly
80.09898°
Mean motion
3.8172 °/min
Orbital period
94.31 mins
BSTAR
0.00099438
Loading maneuver chart data...
Computing Atmospheric mass density...
Loading historical data...
Loading historical data...
Loading historical data...
Loading historical data...
Loading historical data...
Loading historical data...
Loading historical data...

Documentation

Showing up to 5 results
|